Find Starlink 32379

NORAD ID: 61851 Int'l Des: 2024-202 Owner: SPXS Country: US Constellation: starlink operational
LEOCIRCULAR

当前视图

正在加载3D地球...

About Starlink 32379

Starlink 32379 (NORAD 61851) is a starlink constellation satellite (v2 mini) launched Nov 7, 2024 by SPXS of US. It operates in LEO, CIRCULAR orbit with a mass of 730.00 kg.

关于 Starlink 32379

正在加载描述...

即将过境

Passes for default location (London). Set your location on the main map for personalized predictions.

高度历史

Loading altitude history...

两行轨道根数

1 61851U 24202G 26170.59303551 -.00000659 00000-0 -14434-4 0 9990
2 61851 43.0039 11.1428 0001089 275.9553 84.1174 15.27574255 91045
Epoch: Jun 19, 2026 • Age: 37 hours

当前状态

高度 485.8 km
速度 7.63 km/s
星下点 37.63°N, 175.38°E
发射日期 Nov 7, 2024
运行时间 1.6 years
类型 internet

技术详情

分类 Payload
质量 730.00 kg
干质量 700.00 kg
总质量 730.00 kg
长度 0.30 m
直径 4.10 m
跨度 29.00 m
形状 Box + pan
制造商 SPXS
平台类型 Starlink V2M
阶段状态 In Orbit
所有者/国家 SPXS/US

Most Searched